{"data":{"norad_id":56891,"intl_designator":"2023-083R","name":"STARLINK-6213","alt_names":[],"object_type":"PAYLOAD","status":"ACTIVE","operator":null,"country":"US","launch_date":"2023-06-12","launch_site_code":"AFETR","launch_vehicle":null,"mission":null,"orbit_class":"UNKNOWN","rcs_meters":null,"size_class":null,"mass_kg":null,"dimensions":null,"purposes":["comms"],"wikipedia_slug":null,"has_3d_model":false,"image_url":null,"decayed_at":null,"tle_current":{"epoch":"2026-05-24T23:57:48.830112Z","epoch_age_seconds":78691,"freshness":"FRESH","line1":"1 56891U 23083R   26144.99848183  .00001388  00000+0  59947-4 0  9999","line2":"2 56891  43.0032  13.9967 0001111 273.3409  86.7315 15.27573313163300","mean_motion":15.27573313,"eccentricity":0.0001111,"inclination_deg":43.0032,"raan_deg":13.9967,"arg_perigee_deg":273.3409,"mean_anomaly_deg":86.7315,"bstar":5.9947e-5,"rev_number":16330,"period_min":94.267161369295,"perigee_km":482.30683939647,"apogee_km":483.8313993962,"semimajor_km":6861.2061193963,"source":"CELESTRAK","updated_at":"2026-05-25T13:38:18.170064Z"}}}